Home   Weather   Ittoqqortoormiit   Past weeks

Flag for Greenland Past Weather in Ittoqqortoormiit, Greenland — Yesterday and Last 2 Weeks

Now
2 °F

Frigid.


Feels Like: 2 °F
Forecast: 11 / 35 °F
Wind: 1 mph from North

Location: Daneborg

Current Time: Apr 27, 2017 at 3:28:36 am

Latest Report: Apr 27, 2017 at 2:00 am


Visibility: N/A

Pressure: 29.84 "Hg

Humidity: 90%

Dew Point: 0 °F

Location of IttoqqortoormiitLocation

Past Weather in Ittoqqortoormiit — Graph

°F

Ittoqqortoormiit Temperature Yesterday

Maximum temperature yesterday: 15 °F (at 6:00 pm)
Minimum temperature yesterday: -2 °F (at 3:00 am)
Average temperature yesterday: 6 °F

High & Low Weather Summary for the Past Weeks

 TemperatureHumidityPressure
High24 °F (Apr 12, 3:00 pm)90% (Apr 13, 6:00 pm)30.50 "Hg (Apr 13, 6:00 pm)
Low-10 °F (Apr 18, 5:00 am)45% (Apr 12, 4:00 am)29.83 "Hg (Apr 19, 10:00 pm)
Average6 °F69%30.23 "Hg
* Reported Apr 12 1:00 am — Apr 27 1:00 am, Ittoqqortoormiit, Weather by CustomWeather, © 2017

Note: Actual official high and low records may vary slightly from our data, if they occured in-between our weather recording intervals... More about our weather records

Advertising

Ittoqqortoormiit Weather History for the Previous 24 Hours

Scroll right to see more
 ConditionsComfort  
Time TempWeatherWind HumidityBarometerVisibility
1:00 am
Thu, Apr 27
4 °FFrigid.2 mph80%29.86 "HgN/A
12:00 am4 °FFrigid.5 mph81%29.88 "HgN/A
11:00 pm
Wed, Apr 26
5 °FFrigid.1 mph81%29.90 "HgN/A
10:00 pm6 °FFrigid.2 mph76%29.91 "HgN/A
9:00 pm10 °FFrigid.1 mph71%29.94 "HgN/A
8:00 pm9 °FFrigid.2 mph74%29.95 "HgN/A
7:00 pm13 °FCold.1 mph65%29.96 "HgN/A
6:00 pm15 °FCold.No wind57%29.97 "HgN/A
5:00 pm14 °FCold.1 mph60%30.00 "HgN/A
4:00 pm11 °FCold.3 mph67%30.00 "HgN/A
3:00 pm12 °FCold.1 mph61%30.00 "HgN/A
2:00 pm12 °FCold.8 mph61%30.01 "HgN/A
1:00 pm11 °FCold.6 mph62%30.01 "HgN/A
12:00 pm8 °FFrigid.3 mph65%30.01 "HgN/A
11:00 am7 °FFrigid.1 mph60%30.01 "HgN/A
10:00 am4 °FFrigid.3 mph62%30.01 "HgN/A
9:00 am3 °FFrigid.5 mph63%30.00 "HgN/A
8:00 am0 °FFrigid.12 mph70%29.98 "HgN/A
7:00 am-1 °FFrigid.3 mph66%29.98 "HgN/A
6:00 am0 °FFrigid.3 mph71%29.95 "HgN/A
5:00 am0 °FFrigid.5 mph69%29.94 "HgN/A
4:00 am2 °FFrigid.8 mph66%29.91 "HgN/A
3:00 am-2 °FFrigid.1 mph73%29.91 "HgN/A
Weather by CustomWeather, © 2017

See weather overviewHow to use our weather pages